| time (UTC) | temp F | wind direction | speed MPH | gust MPH | rain 1hr in | rain 24hr in | rain mn in | humidity % | barometer mb |
| 20260905190052 | 88 | 90 | 8.0 | 12.0 | 0.00 | 0.00 | 0.00 | 52 | 1003.4 |
| 20260905184548 | 87 | 109 | 5.0 | 9.0 | 0.00 | 0.00 | 0.00 | 53 | 1003.7 |
| 20260905183044 | 86 | 94 | 3.0 | 9.0 | 0.00 | 0.00 | 0.00 | 54 | 1003.9 |
| 20260905181540 | 86 | 64 | 3.0 | 11.0 | 0.00 | 0.00 | 0.00 | 53 | 1004.1 |
| 20260905180034 | 87 | 121 | 4.0 | 14.0 | 0.00 | 0.00 | 0.00 | 53 | 1004.0 |
| 20260905174534 | 86 | 129 | 10.0 | 15.0 | 0.00 | 0.00 | 0.00 | 54 | 1003.7 |
| 20260905173029 | 86 | 112 | 10.0 | 15.0 | 0.00 | 0.00 | 0.00 | 57 | 1003.8 |
| 20260905171529 | 85 | 114 | 8.0 | 17.0 | 0.00 | 0.00 | 0.00 | 58 | 1004.1 |
| 20260905170019 | 85 | 136 | 10.0 | 19.0 | 0.00 | 0.00 | 0.00 | 59 | 1004.4 |
| 20260905164513 | 84 | 117 | 8.0 | 17.0 | 0.00 | 0.00 | 0.00 | 61 | 1004.5 |
| 20260905163008 | 83 | 147 | 9.0 | 18.0 | 0.00 | 0.00 | 0.00 | 63 | 1004.6 |
| 20260905161504 | 83 | 133 | 13.0 | 17.0 | 0.00 | 0.00 | 0.00 | 62 | 1004.6 |
| 20260905160109 | 82 | 145 | 7.0 | 14.0 | 0.00 | 0.00 | 0.00 | 67 | 1004.7 |
| 20260905154625 | 81 | 122 | 10.0 | 15.0 | 0.00 | 0.00 | 0.00 | 66 | 1004.9 |
| 20260905153050 | 80 | 136 | 11.0 | 14.0 | 0.00 | 0.00 | 0.00 | 67 | 1005.0 |
| 20260905151546 | 79 | 154 | 7.0 | 14.0 | 0.00 | 0.00 | 0.00 | 69 | 1005.0 |
| 20260905150047 | 78 | 131 | 9.0 | 13.0 | 0.00 | 0.00 | 0.00 | 69 | 1005.1 |
| 20260905143033 | 76 | 127 | 6.0 | 10.0 | 0.00 | 0.00 | 0.00 | 71 | 1005.0 |
| 20260905141530 | 76 | 138 | 4.0 | 9.0 | 0.00 | 0.00 | 0.00 | 71 | 1005.1 |
| 20260905140025 | 75 | 161 | 3.0 | 6.0 | 0.00 | 0.00 | 0.00 | 71 | 1004.7 |
| 20260905134523 | 74 | 134 | 1.0 | 4.0 | 0.00 | 0.00 | 0.00 | 68 | 1004.6 |
| 20260905133015 | 73 | 149 | 0.0 | 1.0 | 0.00 | 0.00 | 0.00 | 54 | 1004.6 |
| 20260905131528 | 72 | 149 | 0.0 | 2.0 | 0.00 | 0.00 | 0.00 | 47 | 1004.5 |
| 20260905130007 | 71 | 144 | 1.0 | 3.0 | 0.00 | 0.00 | 0.00 | 44 | 1004.4 |
| 20260905124503 | 72 | 154 | 2.0 | 6.0 | 0.00 | 0.01 | 0.00 | 50 | 1004.5 |
| 20260905123101 | 72 | 211 | 2.0 | 7.0 | 0.00 | 0.01 | 0.00 | 44 | 1004.5 |
| 20260905121553 | 73 | 205 | 3.0 | 8.0 | 0.00 | 0.01 | 0.00 | 36 | 1004.6 |
| 20260905120052 | 73 | 55 | 0.0 | 3.0 | 0.00 | 0.01 | 0.00 | 4 | 1004.7 |
| 20260905114552 | 73 | 260 | 1.0 | 8.0 | 0.00 | 0.01 | 0.00 | 1 | 1004.5 |
| 20260905113040 | 73 | 214 | 2.0 | 11.0 | 0.00 | 0.01 | 0.00 | 1 | 1003.9 |
| 20260905111545 | 73 | 344 | 2.0 | 4.0 | 0.00 | 0.01 | 0.00 | 1 | 1004.1 |
| 20260905110031 | 74 | 149 | 6.0 | 16.0 | 0.00 | 0.01 | 0.00 | 1 | 1003.5 |
| 20260905104526 | 74 | 170 | 7.0 | 15.0 | 0.00 | 0.01 | 0.00 | 2 | 1004.0 |
| 20260905103023 | 75 | 143 | 10.0 | 27.0 | 0.00 | 0.01 | 0.00 | 2 | 1004.1 |
| 20260905101518 | 74 | 206 | 7.0 | 12.0 | 0.00 | 0.01 | 0.00 | 1 | 1004.0 |
| 20260905100014 | 73 | 8 | 1.0 | 12.0 | 0.00 | 0.01 | 0.00 | 1 | 1004.5 |
| 20260905094508 | 73 | 133 | 9.0 | 16.0 | 0.00 | 0.01 | 0.00 | 1 | 1003.6 |
| 20260905093004 | 72 | 119 | 7.0 | 11.0 | 0.00 | 0.01 | 0.00 | 1 | 1004.2 |
| 20260905091604 | 72 | 95 | 2.0 | 5.0 | 0.00 | 0.01 | 0.00 | 1 | 1004.0 |
| 20260905090056 | 72 | 88 | 1.0 | 4.0 | 0.00 | 0.01 | 0.00 | 1 | 1004.0 |
| 20260905084602 | 72 | 24 | 1.0 | 5.0 | 0.00 | 0.01 | 0.00 | 4 | 1004.2 |
| 20260905081543 | 72 | 330 | 2.0 | 5.0 | 0.00 | 0.01 | 0.00 | 10 | 1004.6 |
| 20260905080042 | 73 | 114 | 3.0 | 5.0 | 0.00 | 0.01 | 0.00 | 18 | 1004.0 |
| 20260905074537 | 73 | 142 | 2.0 | 6.0 | 0.00 | 0.01 | 0.00 | 27 | 1004.3 |
| 20260905073034 | 73 | 130 | 4.0 | 11.0 | 0.00 | 0.01 | 0.00 | 38 | 1004.0 |
| 20260905071534 | 73 | 121 | 7.0 | 11.0 | 0.00 | 0.01 | 0.00 | 41 | 1003.2 |
| 20260905070030 | 73 | 102 | 5.0 | 9.0 | 0.00 | 0.01 | 0.00 | 43 | 1003.5 |
| 20260905064527 | 74 | 109 | 3.0 | 7.0 | 0.00 | 0.01 | 0.00 | 49 | 1003.6 |
| 20260905063025 | 74 | 119 | 6.0 | 10.0 | 0.00 | 0.01 | 0.00 | 49 | 1004.1 |
| 20260905061530 | 73 | 116 | 4.0 | 7.0 | 0.00 | 0.01 | 0.00 | 44 | 1004.1 |
| 20260905060032 | 74 | 71 | 3.0 | 7.0 | 0.00 | 0.01 | 0.00 | 48 | 1004.3 |
| 20260905054522 | 74 | 89 | 3.0 | 8.0 | 0.00 | 0.01 | 0.00 | 44 | 1004.7 |
| 20260905053013 | 74 | 154 | 0.0 | 4.0 | 0.00 | 0.01 | 0.00 | 58 | 1005.1 |
| 20260905051526 | 74 | 140 | 3.0 | 6.0 | 0.00 | 0.01 | 0.00 | 56 | 1005.1 |
| 20260905050008 | 75 | 134 | 2.0 | 4.0 | 0.00 | 0.01 | 0.00 | 60 | 1005.3 |
| 20260905044506 | 75 | 88 | 0.0 | 3.0 | 0.00 | 0.01 | 0.01 | 60 | 1005.0 |
| 20260905043059 | 75 | 67 | 3.0 | 5.0 | 0.00 | 0.01 | 0.01 | 60 | 1004.4 |
| 20260905041605 | 75 | 107 | 1.0 | 5.0 | 0.00 | 0.01 | 0.01 | 62 | 1004.5 |
| 20260905040103 | 75 | 322 | 1.0 | 8.0 | 0.00 | 0.01 | 0.01 | 59 | 1005.1 |
| 20260905034545 | 75 | 133 | 4.0 | 11.0 | 0.00 | 0.01 | 0.01 | 61 | 1004.7 |
| 20260905033050 | 75 | 156 | 9.0 | 15.0 | 0.00 | 0.01 | 0.01 | 58 | 1004.1 |
| 20260905031542 | 74 | 111 | 9.0 | 14.0 | 0.00 | 0.01 | 0.01 | 49 | 1003.8 |
| 20260905030031 | 74 | 109 | 1.0 | 5.0 | 0.00 | 0.01 | 0.01 | 41 | 1004.8 |
| 20260905024552 | 74 | 246 | 3.0 | 4.0 | 0.00 | 0.01 | 0.01 | 46 | 1005.0 |
| 20260905023024 | 76 | 295 | 8.0 | 12.0 | 0.00 | 0.01 | 0.01 | 61 | 1004.9 |
| 20260905020014 | 77 | 105 | 5.0 | 11.0 | 0.00 | 0.01 | 0.01 | 67 | 1003.4 |
| 20260905014510 | 77 | 106 | 10.0 | 13.0 | 0.00 | 0.01 | 0.01 | 68 | 1003.6 |
| 20260905013007 | 77 | 131 | 2.0 | 7.0 | 0.00 | 0.01 | 0.01 | 68 | 1004.5 |
| 20260905011612 | 78 | 83 | 4.0 | 12.0 | 0.00 | 0.01 | 0.01 | 69 | 1004.0 |
| 20260905010100 | 78 | 62 | 5.0 | 14.0 | 0.00 | 0.01 | 0.01 | 68 | 1002.7 |
| 20260905004554 | 79 | 102 | 12.0 | 17.0 | 0.00 | 0.01 | 0.01 | 69 | 1001.7 |
| 20260905003047 | 79 | 102 | 5.0 | 11.0 | 0.00 | 0.01 | 0.01 | 70 | 1003.3 |
| 20260905001543 | 80 | 57 | 6.0 | 13.0 | 0.00 | 0.01 | 0.01 | 70 | 1002.9 |
| 20260905000039 | 80 | 60 | 6.0 | 10.0 | 0.00 | 0.01 | 0.01 | 70 | 1002.8 |
| 20260904234537 | 81 | 85 | 4.0 | 7.0 | 0.00 | 0.01 | 0.01 | 69 | 1003.2 |
| 20260904233030 | 82 | 72 | 3.0 | 7.0 | 0.00 | 0.01 | 0.01 | 67 | 1003.3 |
| 20260904231524 | 82 | 91 | 3.0 | 6.0 | 0.00 | 0.01 | 0.01 | 67 | 1003.5 |
| 20260904230021 | 83 | 52 | 5.0 | 13.0 | 0.00 | 0.01 | 0.01 | 65 | 1002.8 |
| 20260904224516 | 84 | 77 | 3.0 | 17.0 | 0.00 | 0.01 | 0.01 | 64 | 1002.7 |
| 20260904223012 | 83 | 126 | 15.0 | 21.0 | 0.00 | 0.01 | 0.01 | 63 | 1001.2 |
| 20260904221508 | 83 | 105 | 6.0 | 11.0 | 0.00 | 0.01 | 0.01 | 63 | 1003.2 |
| 20260904220004 | 84 | 100 | 8.0 | 12.0 | 0.00 | 0.01 | 0.01 | 63 | 1002.7 |
| 20260904214559 | 84 | 101 | 6.0 | 13.0 | 0.00 | 0.01 | 0.01 | 67 | 1003.4 |
| 20260904213059 | 84 | 90 | 7.0 | 11.0 | 0.00 | 0.01 | 0.01 | 67 | 1003.2 |
| 20260904211550 | 84 | 79 | 6.0 | 13.0 | 0.00 | 0.01 | 0.01 | 67 | 1003.1 |
| 20260904210048 | 85 | 87 | 9.0 | 14.0 | 0.00 | 0.01 | 0.01 | 65 | 1003.1 |
| 20260904204542 | 84 | 81 | 7.0 | 14.0 | 0.00 | 0.01 | 0.01 | 65 | 1003.3 |
| 20260904203037 | 85 | 99 | 10.0 | 14.0 | 0.00 | 0.01 | 0.01 | 63 | 1003.3 |
| 20260904201540 | 85 | 77 | 6.0 | 12.0 | 0.00 | 0.01 | 0.01 | 62 | 1003.9 |
| 20260904194523 | 83 | 94 | 5.0 | 10.0 | 0.00 | 0.01 | 0.01 | 64 | 1004.4 |
| 20260904193025 | 83 | 96 | 4.0 | 10.0 | 0.00 | 0.01 | 0.01 | 65 | 1004.6 |
| 20260904191516 | 82 | 60 | 5.0 | 10.0 | 0.00 | 0.01 | 0.01 | 66 | 1004.9 |